Satellite-Ground Cal/Val Site Overpasses Predictions

Prediction of Satellite NPP Overpassing Cal/Val Site: Antarctic Dome C

Ground Cal/Val Site Location: Latitude: -75.10, Longitude: 123.35; Satellite-Ground Site NADIR distance within 100 km.

Table of predicted overpasses for the next 14.0 days since TLE Epoch: 7/10/2020
Interval Starting Time Ending Time Minimum Distance Time Minimum Distance (km)
1 07/11/2020 14:48:18 07/11/2020 14:48:47 07/11/2020 14:48:33 16.04
2 07/13/2020 07:31:08 07/13/2020 07:31:38 07/13/2020 07:31:23 2.69
3 07/16/2020 14:54:38 07/16/2020 14:55:07 07/16/2020 14:54:52 20.93
4 07/17/2020 14:35:56 07/17/2020 14:36:11 07/17/2020 14:36:03 86.14
5 07/18/2020 07:37:29 07/18/2020 07:37:57 07/18/2020 07:37:43 33.61
6 07/19/2020 07:18:44 07/19/2020 07:19:02 07/19/2020 07:18:53 76.45
7 07/21/2020 15:00:59 07/21/2020 15:01:23 07/21/2020 15:01:11 57.99
8 07/22/2020 14:42:10 07/22/2020 14:42:35 07/22/2020 14:42:23 51.07
9 07/23/2020 07:43:52 07/23/2020 07:44:13 07/23/2020 07:44:02 69.04
